Wind_Speed
8 7 6 5 5 4 3 3 4 5 6 7 8 9 10 10 11 12 11 10 10 11 11 12 12 11 11 11 11 10 10 9 8 8 7 8 8 8 8 8 8 8 7 8 8 9 9 9 10
8 8 7 6 5 4 3 3 4 6 7 8 8 9 9 10 11 12 11 11 11 11 12 12 12 12 12 12 12 11 11 10 9 9 8 8 8 8 9 9 9 9 9 9 9 10 10 10 10
9 8 7 6 6 4 4 4 5 5 7 8 9 9 10 11 11 12 12 12 12 12 12 12 12 12 13 13 13 12 12 11 11 10 10 9 9 9 9 10 10 10 10 10 11 11 10 11 11
10 9 8 6 6 5 5 5 5 6 7 8 9 10 11 12 12 13 13 13 12 12 13 13 13 13 14 13 13 12 12 12 12 11 11 10 10 11 11 10 10 11 11 11 12 12 12 11 12
10 9 9 7 6 6 6 6 6 7 8 9 10 11 11 12 13 14 14 13 13 13 13 14 14 14 14 14 13 13 12 12 12 12 12 11 11 12 12 11 11 12 13 13 13 13 13 13 13
11 10 9 7 7 6 7 7 7 7 9 10 10 11 12 13 13 14 14 14 13 13 14 14 13 14 14 15 14 14 14 13 13 13 13 13 13 12 13 13 13 13 14 14 14 14 15 14 14
12 11 9 8 7 6 6 7 7 8 10 11 11 12 12 13 13 13 14 14 14 14 14 14 13 14 14 14 14 14 14 14 13 14 14 14 14 14 14 14 14 14 15 15 15 15 16 16 16
12 11 10 9 8 7 7 7 7 9 11 11 12 13 13 13 13 14 14 15 14 14 14 14 14 14 15 15 14 13 14 14 14 14 14 15 15 15 15 15 15 15 16 16 16 17 17 18 18
13 11 10 10 10 9 7 7 8 10 11 11 12 13 14 14 14 15 14 14 14 14 14 13 14 14 14 13 13 13 13 14 14 14 15 15 16 16 16 15 16 16 17 18 18 18 19 19 19
13 12 11 11 11 10 9 8 9 9 10 11 12 13 14 14 15 15 14 14 14 13 13 13 13 13 13 13 13 14 14 15 15 14 15 16 17 17 17 17 17 18 18 19 20 20 20 20 20
13 12 11 11 11 10 9 9 9 9 9 10 12 13 14 15 15 14 15 14 13 13 13 13 13 13 13 14 14 14 14 14 15 14 15 16 17 18 18 18 19 19 20 20 20 21 21 21 21
13 11 10 11 11 10 9 9 9 9 9 10 11 12 14 14 14 14 14 14 13 12 12 13 13 14 14 14 14 13 13 13 14 14 14 14 15 17 18 18 19 20 21 21 21 21 22 22 23
14 12 11 10 11 10 10 10 9 9 10 10 11 12 12 12 13 13 13 14 13 13 13 13 13 14 13 13 13 13 13 14 15 15 15 15 15 16 17 17 18 20 20 20 20 22 22 23 24
13 13 12 11 11 10 10 10 9 8 9 10 11 12 12 12 13 13 13 12 12 13 13 13 13 14 14 14 14 14 15 15 16 17 18 17 17 17 17 18 19 19 19 19 20 21 22 23 25
12 12 12 12 11 10 10 10 10 9 9 10 11 11 12 13 13 14 12 12 12 12 12 13 13 14 15 15 15 16 17 17 17 17 18 18 18 18 19 19 20 20 21 21 21 21 23 23 24
12 12 13 13 12 11 11 9 9 10 10 10 11 11 11 12 12 13 13 12 12 12 12 13 14 15 15 16 16 17 18 18 18 19 19 19 19 19 19 19 20 21 22 23 23 23 23 24 25
12 12 12 12 13 12 11 10 10 11 11 11 11 11 11 12 12 13 13 13 13 13 14 14 15 15 16 16 17 17 18 19 19 20 19 19 19 19 19 20 21 22 23 23 24 24 25 25 25
12 12 12 11 12 13 12 11 10 11 12 12 12 12 13 12 13 14 14 14 14 14 15 16 17 17 17 17 18 19 19 19 19 19 19 18 19 19 20 21 21 22 22 22 23 24 24 24 24
13 13 12 12 13 13 12 12 12 12 13 13 14 13 13 13 13 14 14 15 15 15 16 17 17 18 18 18 19 19 19 19 19 19 18 18 19 19 19 20 20 20 20 20 21 22 22 23 23
12 12 11 11 12 14 13 13 12 13 13 13 14 14 13 13 13 14 14 15 15 15 16 17 18 18 19 19 18 19 19 19 19 19 19 19 18 18 18 19 20 19 20 20 20 20 22 23 23
12 12 11 11 12 14 14 13 13 14 14 14 13 13 13 14 13 13 14 13 14 15 16 17 17 18 19 19 19 19 19 19 18 19 18 18 17 17 18 18 19 19 19 19 20 20 21 21 22
13 12 12 12 13 14 15 14 13 14 14 14 13 13 14 14 13 13 14 13 13 15 16 16 16 17 19 19 20 19 18 19 18 18 18 18 17 18 18 18 19 18 19 19 19 21 22 22 22
12 11 12 13 13 13 14 14 12 14 14 13 13 13 13 13 13 13 14 14 14 15 16 17 17 18 19 19 20 19 19 19 19 19 18 18 18 19 18 18 18 18 20 20 21 21 21 21 22
12 12 12 13 13 13 13 14 12 13 13 12 11 12 13 13 14 14 14 14 15 16 17 18 19 20 20 20 20 19 19 19 20 20 19 19 19 18 18 18 18 19 20 20 20 21 21 21 21
12 12 13 14 14 13 12 14 13 13 12 13 13 13 14 14 14 14 14 15 16 17 18 19 20 20 21 21 20 19 19 20 20 20 19 18 18 18 19 19 20 20 20 20 20 20 20 20 21
11 12 13 14 14 13 13 13 13 13 12 12 13 14 15 15 15 15 15 15 16 17 18 19 20 20 20 20 19 19 19 20 20 20 19 18 18 19 19 19 19 20 19 19 19 19 19 19 20
12 13 13 15 15 15 14 14 13 12 12 12 13 14 14 15 15 15 15 15 16 18 18 19 19 19 19 19 19 18 19 19 20 19 19 19 19 19 18 18 18 18 18 18 18 19 19 19 20
14 13 14 15 16 15 15 14 13 12 13 13 14 14 15 15 15 16 16 16 17 17 18 18 18 18 18 19 18 18 18 19 19 18 18 18 18 17 17 17 17 18 18 18 18 18 19 19 20
14 14 15 16 16 17 16 14 14 14 13 14 14 15 15 16 15 15 16 16 18 18 18 19 18 18 18 18 18 18 19 19 19 18 18 18 18 18 17 17 17 17 17 18 18 18 19 19 19
15 15 16 16 16 17 17 15 15 14 13 13 14 15 16 15 15 15 16 17 19 18 18 18 18 18 17 18 17 18 18 19 19 18 18 18 18 18 18 18 17 18 18 18 17 18 18 19 19
Wind_Direction
232 231 231 238 238 241 269 303 318 331 327 326 326 329 330 330 330 328 329 329 326 326 325 324 320 318 317 319 318 314 308 303 299 296 293 290 283 279 279 278 276 272 270 272 271 265 263 261 259
232 233 236 245 250 252 265 288 309 331 327 323 320 324 328 328 326 325 322 320 319 320 322 321 321 318 313 312 313 309 304 298 295 293 289 286 282 279 277 275 273 273 271 269 268 263 259 257 256
230 233 236 247 259 262 265 282 297 316 320 316 313 317 322 323 323 319 317 315 315 316 317 317 317 316 312 310 308 301 295 292 292 289 283 281 279 278 276 273 269 270 268 265 263 262 258 256 255
231 234 238 247 261 267 267 279 292 311 321 314 311 315 317 318 318 317 316 314 313 313 311 311 312 311 309 307 305 299 293 290 289 286 282 279 278 276 274 271 267 265 264 264 263 262 259 258 254
231 234 239 243 245 260 270 281 296 310 314 316 311 314 315 314 316 318 317 313 308 308 308 308 308 307 308 304 300 296 294 291 288 285 280 275 275 277 274 270 267 264 262 260 261 260 258 257 255
233 234 238 240 246 264 277 280 289 307 308 315 314 311 314 317 318 318 318 312 309 309 308 308 308 308 304 299 298 297 294 289 284 282 279 273 270 268 270 269 268 265 261 259 259 258 258 258 257
234 235 236 236 245 256 273 287 299 312 316 315 315 312 317 322 324 322 321 318 309 306 307 307 309 308 304 300 299 299 296 291 286 282 279 276 271 270 268 268 268 266 262 260 259 258 258 259 259
234 234 237 242 249 252 275 291 302 312 318 315 313 314 317 318 323 326 324 321 316 310 307 307 310 309 308 303 301 300 298 295 291 284 280 277 274 270 268 268 268 266 262 260 260 259 258 259 259
233 231 237 244 250 257 276 287 298 306 312 315 316 317 316 320 321 326 329 326 323 320 317 314 313 310 310 306 305 301 298 296 294 285 279 277 275 270 266 267 266 264 263 262 260 259 258 258 258
234 232 235 244 254 262 271 279 294 303 310 314 314 317 319 320 322 322 325 326 324 323 319 315 313 309 306 302 301 302 299 295 294 287 280 277 274 269 265 265 265 263 263 261 259 258 257 256 256
234 232 239 246 253 260 270 277 283 295 307 312 315 321 323 321 322 321 323 325 322 322 317 315 313 311 307 303 299 300 300 295 295 291 283 277 272 268 265 265 264 263 263 263 261 259 258 257 257
233 236 245 247 254 260 269 273 275 290 301 303 312 318 321 324 323 322 322 324 322 321 321 318 312 311 306 305 302 300 300 297 298 296 288 280 274 272 268 267 266 266 265 267 266 263 260 257 257
236 240 247 250 256 262 269 266 271 287 295 300 309 318 320 325 324 321 321 322 324 322 317 315 315 313 309 306 304 301 301 299 297 294 290 284 278 275 270 267 267 268 268 267 267 265 261 259 259
238 240 244 249 256 262 266 268 274 281 289 298 307 314 316 319 321 320 319 318 321 321 317 315 315 316 312 306 302 301 300 297 296 293 290 285 281 275 270 268 267 267 268 268 270 268 265 263 261
242 244 247 250 251 257 262 268 275 279 289 297 303 306 310 317 319 323 322 317 315 315 316 315 314 313 310 305 302 298 297 295 295 294 289 286 283 278 274 271 267 268 269 269 271 271 268 266 263
245 246 251 253 255 254 257 264 269 276 288 298 301 304 310 314 320 325 324 321 317 314 316 315 314 314 311 309 306 303 300 296 295 294 290 287 283 279 277 274 270 270 270 270 271 271 270 266 263
251 250 255 255 253 254 261 264 268 276 284 292 296 302 312 315 319 321 321 320 319 318 316 316 317 318 317 314 310 304 302 298 295 292 291 287 283 279 280 278 276 274 271 271 271 270 270 268 265
250 252 255 255 249 252 260 265 270 276 282 286 289 296 306 313 318 321 323 320 319 319 319 320 320 316 315 312 309 308 305 302 299 295 293 288 283 281 281 280 280 278 277 274 271 269 269 267 266
247 253 257 259 255 258 264 268 268 270 281 284 287 291 299 309 315 318 322 322 320 320 321 324 321 319 319 317 312 311 306 304 302 299 295 292 292 285 283 282 280 280 280 279 275 274 270 267 266
251 255 256 257 261 265 269 274 275 277 285 290 292 291 293 306 311 316 319 323 323 321 322 323 321 319 320 321 318 315 313 310 307 302 300 299 297 290 286 284 282 282 282 281 280 276 271 269 268
252 254 259 264 264 270 275 278 280 283 286 294 297 295 298 303 306 313 317 319 319 318 320 321 323 322 321 320 319 316 315 312 308 303 302 301 299 296 292 289 286 284 282 281 280 277 273 272 270
251 255 263 269 273 275 275 277 281 286 290 292 294 297 302 303 304 309 311 315 317 318 320 322 321 321 320 320 318 316 315 313 310 305 302 300 297 297 294 292 286 283 281 282 282 279 275 274 273
258 260 266 272 276 277 278 281 287 287 292 290 291 296 298 302 306 309 311 314 317 317 319 321 322 322 321 321 319 317 314 313 311 309 307 304 301 298 296 293 289 285 282 282 283 284 281 279 277
256 262 271 276 279 280 283 285 288 289 291 289 290 296 301 301 304 309 310 314 317 316 318 320 322 324 324 324 321 318 315 313 312 310 309 306 304 301 299 295 293 291 287 284 283 283 282 281 279
256 265 273 277 279 284 286 287 291 292 290 290 290 293 298 300 303 306 309 313 316 316 319 321 321 322 324 323 322 318 315 314 314 314 313 310 307 304 301 297 295 293 290 288 286 285 283 281 281
261 267 275 281 283 284 287 293 296 294 296 293 289 290 295 299 302 305 307 311 315 316 318 320 320 321 322 322 322 320 317 317 317 316 315 314 312 309 305 301 298 297 296 292 288 287 284 283 282
267 271 276 279 283 285 289 296 298 295 297 298 295 294 298 302 303 304 307 311 314 316 318 319 322 322 322 324 323 322 320 320 319 318 317 316 315 313 310 307 302 301 299 295 292 289 287 287 284
266 270 274 278 282 285 290 295 299 298 296 297 298 298 299 303 305 306 310 314 316 317 319 319 321 322 322 323 325 325 323 323 323 321 320 321 321 320 317 313 309 305 303 301 297 294 291 290 288
264 268 272 276 279 285 288 292 295 293 291 294 298 301 302 305 308 311 312 315 316 316 319 321 320 320 323 326 329 328 326 325 324 324 322 322 323 321 318 315 313 312 309 306 302 299 296 294 292
264 268 272 275 281 285 288 289 289 289 288 291 297 300 301 302 309 313 313 316 318 318 318 320 321 323 325 324 326 327 328 330 329 327 326 325 325 323 320 316 313 314 313 309 306 303 300 297 296
Height
5870 5871 5872 5873 5874 5874 5874 5874 5873 5872 5872 5872 5871 5870 5870 5870 5870 5871 5869 5867 5866 5865 5864 5863 5862 5862 5861 5861 5860 5859 5859 5859 5859 5859 5859 5859 5859 5859 5860 5860 5861 5861 5862 5863 5864 5865 5866 5867 5868
5868 5870 5872 5873 5873 5873 5873 5873 5872 5872 5872 5871 5870 5869 5868 5868 5867 5867 5866 5865 5865 5864 5863 5862 5861 5860 5859 5859 5858 5858 5857 5857 5857 5857 5857 5857 5857 5858 5858 5858 5859 5860 5860 5861 5862 5862 5863 5864 5865
5867 5869 5871 5871 5872 5872 5872 5872 5871 5871 5870 5870 5869 5868 5867 5866 5866 5865 5865 5864 5863 5862 5861 5860 5859 5858 5857 5857 5856 5856 5855 5855 5854 5854 5855 5855 5855 5856 5856 5856 5857 5857 5858 5859 5859 5860 5860 5862 5863
5867 5868 5870 5871 5871 5871 5871 5870 5870 5870 5869 5868 5868 5867 5866 5865 5865 5864 5863 5862 5861 5860 5859 5858 5857 5856 5855 5855 5854 5853 5853 5852 5852 5852 5852 5852 5853 5853 5853 5854 5854 5855 5856 5857 5857 5857 5858 5859 5860
5865 5867 5868 5869 5869 5870 5869 5869 5868 5868 5868 5867 5867 5866 5864 5864 5863 5862 5861 5860 5859 5858 5857 5856 5855 5854 5853 5852 5852 5851 5850 5850 5850 5850 5850 5850 5850 5851 5851 5851 5852 5852 5853 5854 5855 5855 5856 5857 5858
5864 5866 5867 5867 5868 5868 5867 5867 5867 5867 5866 5866 5865 5864 5863 5862 5861 5860 5859 5858 5857 5855 5854 5853 5852 5852 5851 5849 5849 5848 5848 5848 5847 5847 5847 5847 5847 5847 5848 5848 5849 5849 5850 5851 5852 5852 5853 5854 5855
5863 5864 5865 5866 5866 5866 5866 5865 5865 5866 5865 5864 5863 5863 5862 5861 5859 5857 5856 5855 5854 5853 5851 5850 5850 5849 5848 5846 5846 5846 5845 5845 5845 5844 5844 5844 5844 5844 5845 5845 5846 5846 5847 5847 5848 5849 5850 5851 5852
5861 5864 5864 5864 5864 5864 5864 5864 5864 5864 5864 5863 5862 5861 5860 5859 5857 5855 5854 5852 5851 5850 5849 5848 5847 5846 5845 5844 5843 5843 5842 5842 5842 5841 5841 5841 5841 5841 5841 5842 5842 5843 5843 5844 5845 5846 5847 5847 5848
5860 5862 5862 5862 5863 5863 5863 5863 5863 5863 5863 5862 5861 5860 5859 5857 5855 5854 5852 5850 5849 5847 5846 5845 5844 5843 5842 5841 5841 5840 5839 5839 5839 5838 5838 5838 5837 5838 5838 5838 5839 5839 5840 5841 5841 5842 5843 5844 5845
5859 5860 5860 5861 5861 5862 5862 5862 5862 5862 5861 5860 5859 5858 5857 5855 5854 5852 5850 5849 5847 5845 5844 5843 5841 5840 5840 5839 5838 5837 5837 5836 5835 5835 5835 5834 5834 5834 5834 5835 5835 5835 5836 5837 5837 5838 5839 5840 5841
5857 5858 5859 5860 5860 5861 5861 5861 5860 5860 5860 5859 5858 5857 5856 5854 5852 5851 5849 5847 5845 5843 5842 5840 5839 5838 5837 5835 5835 5834 5833 5833 5832 5832 5831 5830 5830 5830 5830 5831 5831 5831 5832 5832 5833 5834 5834 5835 5836
5856 5857 5857 5858 5859 5859 5859 5859 5859 5858 5858 5857 5857 5855 5854 5852 5850 5848 5847 5845 5844 5842 5840 5838 5837 5836 5834 5833 5832 5831 5830 5829 5829 5828 5827 5826 5826 5826 5827 5827 5827 5827 5827 5828 5829 5829 5830 5830 5831
5854 5855 5856 5857 5857 5858 5857 5857 5857 5857 5856 5856 5855 5853 5852 5850 5849 5847 5845 5843 5842 5840 5838 5836 5835 5833 5832 5831 5829 5828 5827 5826 5825 5824 5823 5822 5822 5823 5823 5823 5823 5822 5823 5823 5824 5824 5824 5825 5826
5852 5853 5854 5855 5856 5856 5855 5855 5855 5855 5854 5854 5853 5852 5850 5849 5847 5845 5843 5842 5840 5838 5836 5834 5833 5831 5829 5828 5827 5825 5824 5823 5822 5821 5819 5818 5818 5818 5818 5818 5818 5818 5817 5818 5818 5819 5819 5820 5820
5851 5852 5853 5854 5854 5854 5854 5854 5854 5853 5852 5852 5851 5850 5849 5847 5846 5844 5842 5840 5838 5837 5835 5833 5831 5829 5827 5825 5824 5822 5821 5819 5818 5816 5815 5815 5814 5813 5813 5813 5813 5813 5812 5813 5813 5813 5814 5814 5814
5849 5850 5851 5852 5852 5852 5853 5853 5853 5851 5851 5850 5849 5848 5847 5845 5843 5842 5840 5838 5836 5834 5833 5831 5829 5827 5825 5823 5821 5819 5817 5815 5814 5812 5811 5810 5809 5808 5808 5808 5808 5807 5807 5807 5807 5807 5807 5807 5807
5847 5848 5849 5850 5850 5849 5850 5850 5851 5849 5849 5848 5847 5846 5844 5843 5841 5839 5837 5836 5834 5832 5830 5829 5826 5824 5822 5820 5817 5815 5813 5811 5810 5808 5806 5805 5804 5803 5803 5803 5802 5802 5801 5801 5801 5801 5801 5801 5801
5846 5846 5847 5847 5847 5847 5848 5848 5848 5847 5846 5846 5845 5843 5842 5841 5839 5837 5835 5833 5831 5829 5827 5826 5824 5821 5819 5817 5814 5812 5810 5807 5805 5803 5802 5801 5799 5799 5798 5797 5797 5796 5796 5795 5794 5794 5794 5794 5794
5844 5844 5845 5845 5845 5845 5845 5845 5845 5845 5844 5843 5842 5841 5840 5839 5836 5834 5832 5830 5828 5827 5825 5823 5821 5818 5816 5814 5811 5809 5806 5804 5801 5799 5798 5796 5795 5794 5793 5792 5791 5791 5790 5789 5788 5788 5787 5787 5787
5842 5842 5843 5843 5843 5842 5842 5842 5842 5842 5841 5840 5839 5838 5837 5836 5834 5832 5830 5828 5826 5824 5822 5820 5818 5815 5813 5810 5807 5805 5802 5799 5797 5795 5794 5792 5791 5789 5788 5787 5786 5786 5785 5783 5783 5782 5782 5781 5781
5840 5840 5841 5841 5840 5840 5839 5840 5840 5839 5838 5838 5837 5835 5834 5833 5831 5830 5828 5826 5824 5822 5819 5817 5814 5812 5809 5806 5804 5801 5798 5796 5794 5791 5790 5788 5786 5785 5784 5783 5781 5780 5780 5779 5777 5776 5776 5775 5775
5838 5839 5838 5837 5837 5837 5837 5836 5837 5836 5836 5835 5834 5833 5832 5830 5829 5827 5826 5824 5822 5820 5817 5814 5812 5809 5806 5803 5800 5797 5795 5792 5790 5788 5786 5784 5782 5781 5779 5777 5776 5775 5774 5773 5772 5771 5770 5769 5768
5836 5836 5835 5835 5835 5835 5834 5834 5835 5834 5833 5832 5831 5830 5829 5828 5827 5825 5823 5821 5819 5817 5814 5811 5809 5806 5802 5799 5796 5793 5791 5789 5786 5784 5781 5780 5778 5776 5774 5773 5771 5770 5769 5767 5766 5765 5764 5763 5762
5833 5833 5833 5833 5833 5833 5833 5832 5832 5831 5830 5829 5829 5828 5827 5826 5824 5822 5820 5818 5816 5814 5811 5808 5805 5801 5798 5795 5792 5789 5787 5784 5782 5779 5777 5775 5773 5772 5770 5768 5766 5764 5763 5762 5761 5759 5758 5757 5756
5831 5831 5831 5830 5830 5831 5830 5829 5829 5828 5827 5827 5826 5825 5824 5823 5822 5820 5817 5815 5813 5810 5807 5804 5801 5798 5795 5791 5788 5786 5783 5781 5778 5776 5773 5771 5769 5767 5765 5763 5761 5759 5758 5756 5755 5754 5752 5751 5750
5828 5829 5829 5829 5828 5828 5827 5826 5827 5825 5824 5823 5823 5822 5821 5820 5818 5816 5814 5811 5809 5806 5804 5801 5798 5794 5791 5788 5784 5782 5779 5777 5774 5772 5769 5767 5764 5762 5760 5758 5756 5754 5752 5751 5749 5748 5747 5746 5745
5826 5826 5827 5826 5825 5825 5824 5824 5824 5822 5821 5821 5820 5819 5818 5816 5814 5812 5810 5808 5805 5802 5800 5797 5794 5791 5787 5784 5781 5778 5775 5773 5770 5768 5765 5763 5760 5758 5755 5753 5751 5750 5748 5746 5745 5743 5742 5741 5739
5824 5824 5824 5823 5822 5821 5821 5821 5821 5820 5819 5819 5817 5816 5814 5813 5811 5808 5806 5804 5801 5799 5796 5794 5791 5788 5784 5781 5777 5775 5772 5769 5767 5764 5761 5759 5756 5754 5752 5750 5748 5746 5744 5742 5740 5739 5737 5735 5734
5820 5821 5820 5820 5819 5819 5818 5821 5818 5817 5816 5815 5814 5813 5811 5809 5807 5805 5803 5801 5798 5796 5793 5790 5787 5784 5780 5777 5773 5771 5769 5766 5763 5761 5758 5756 5753 5751 5748 5746 5744 5742 5740 5738 5736 5734 5732 5730 5729
5816 5816 5817 5817 5816 5815 5815 5818 5814 5813 5812 5812 5811 5809 5807 5806 5804 5802 5800 5798 5795 5792 5790 5787 5783 5781 5777 5774 5771 5769 5766 5763 5761 5758 5755 5753 5750 5748 5745 5743 5740 5738 5736 5734 5732 5730 5728 5726 5724